Location: Duffs
(47.4500°N, 53.1167°W)
Time: 11:48:39
(UTC+00:00)

ISS - Pass Details

Date: 26 May 2022
Orbit: 414 x 420 km, 51.6° (Epoch: 01 July)

Event Time Altitude Azimuth Distance (km) Brightness Sun altitude
Rises 01:52:36 0° 292° (WNW) 2,367 0.8 -18.1°
Reaches altitude 10° 01:54:47 10° 285° (WNW) 1,498 -0.5 -18.2°
Enters shadow 01:57:42 38° 227° (SW) 647 -3.0 -18.4°
